| time (UTC) | temp F | wind direction | speed knots | gust knots | rain 1hr in | rain 24hr in | rain mn in | humidity % | barometer mb |
| 20260506103041 | 50 | 252 | 6.1 | 9.6 | 0.00 | 0.00 | 0.00 | 28 | 1012.4 |
| 20260506101540 | 50 | 94 | 3.5 | 11.3 | 0.00 | 0.00 | 0.00 | 26 | 1012.5 |
| 20260506100037 | 50 | 173 | 4.3 | 9.6 | 0.00 | 0.00 | 0.00 | 26 | 1012.8 |
| 20260506094535 | 50 | 260 | 3.5 | 8.7 | 0.00 | 0.00 | 0.00 | 30 | 1012.8 |
| 20260506093038 | 50 | 328 | 1.7 | 9.6 | 0.00 | 0.00 | 0.00 | 31 | 1012.7 |
| 20260506091532 | 50 | 259 | 2.6 | 8.7 | 0.00 | 0.00 | 0.00 | 33 | 1012.7 |
| 20260506090029 | 49 | 225 | 2.6 | 7.8 | 0.00 | 0.00 | 0.00 | 33 | 1012.7 |
| 20260506084534 | 48 | 273 | 1.7 | 7.8 | 0.00 | 0.00 | 0.00 | 32 | 1012.7 |
| 20260506083025 | 48 | 334 | 3.5 | 7.0 | 0.00 | 0.00 | 0.00 | 34 | 1012.7 |
| 20260506081522 | 48 | 341 | 2.6 | 7.0 | 0.00 | 0.00 | 0.00 | 35 | 1012.6 |
| 20260506073016 | 46 | 324 | 0.9 | 7.0 | 0.00 | 0.00 | 0.00 | 47 | 1012.6 |
| 20260506071515 | 45 | 310 | 2.6 | 7.0 | 0.00 | 0.00 | 0.00 | 45 | 1012.6 |
| 20260506061502 | 42 | 355 | 1.7 | 4.3 | 0.00 | 0.00 | 0.00 | 61 | 1012.5 |
| 20260506044548 | 34 | 138 | 0.0 | 0.0 | 0.00 | 0.00 | 0.00 | 92 | 1012.1 |
| 20260506043040 | 31 | 138 | 0.0 | 0.0 | 0.00 | 0.00 | 0.00 | 92 | 1011.9 |
| 20260506041548 | 30 | 138 | 0.0 | 0.0 | 0.00 | 0.00 | 0.00 | 93 | 1011.8 |
| 20260506040039 | 29 | 138 | 0.0 | 0.0 | 0.00 | 0.00 | 0.00 | 92 | 1011.7 |
| 20260506034534 | 28 | 138 | 0.0 | 0.0 | 0.00 | 0.00 | 0.00 | 93 | 1011.5 |
| 20260506033031 | 27 | 138 | 0.0 | 0.0 | 0.00 | 0.00 | 0.00 | 92 | 1011.4 |
| 20260506031531 | 26 | 138 | 0.0 | 0.0 | 0.00 | 0.00 | 0.00 | 92 | 1011.2 |
| 20260506030028 | 27 | 138 | 0.0 | 0.0 | 0.00 | 0.00 | 0.00 | 92 | 1011.2 |
| 20260506024527 | 27 | 138 | 0.0 | 0.0 | 0.00 | 0.00 | 0.00 | 92 | 1011.0 |
| 20260506023022 | 27 | 138 | 0.0 | 0.0 | 0.00 | 0.00 | 0.00 | 92 | 1011.0 |
| 20260506021518 | 28 | 138 | 0.0 | 0.0 | 0.00 | 0.00 | 0.00 | 92 | 1010.9 |
| 20260506020016 | 28 | 138 | 0.0 | 0.0 | 0.00 | 0.00 | 0.00 | 92 | 1010.6 |
| 20260506014515 | 28 | 138 | 0.0 | 0.0 | 0.00 | 0.00 | 0.00 | 92 | 1010.6 |
| 20260506013014 | 29 | 138 | 0.0 | 0.0 | 0.00 | 0.00 | 0.00 | 92 | 1010.6 |
| 20260506011525 | 29 | 138 | 0.0 | 0.0 | 0.00 | 0.00 | 0.00 | 92 | 1010.5 |
| 20260506010005 | 29 | 138 | 0.0 | 0.0 | 0.00 | 0.00 | 0.00 | 92 | 1010.3 |
| 20260506004511 | 30 | 138 | 0.0 | 0.0 | 0.00 | 0.00 | 0.00 | 92 | 1010.2 |
| 20260506003002 | 30 | 138 | 0.0 | 0.0 | 0.00 | 0.00 | 0.00 | 92 | 1010.1 |
| 20260506001601 | 30 | 138 | 0.0 | 0.0 | 0.00 | 0.00 | 0.00 | 91 | 1010.0 |
| 20260506000100 | 30 | 138 | 0.0 | 0.0 | 0.00 | 0.00 | 0.00 | 91 | 1009.9 |
| 20260505234554 | 31 | 138 | 0.0 | 0.0 | 0.00 | 0.00 | 0.00 | 91 | 1009.8 |
| 20260505233051 | 32 | 138 | 0.0 | 0.0 | 0.00 | 0.00 | 0.00 | 91 | 1009.6 |
| 20260505231549 | 32 | 138 | 0.0 | 0.0 | 0.00 | 0.00 | 0.00 | 91 | 1009.6 |
| 20260505230046 | 33 | 138 | 0.0 | 1.7 | 0.00 | 0.00 | 0.00 | 90 | 1009.4 |
| 20260505224542 | 33 | 138 | 0.0 | 1.7 | 0.00 | 0.00 | 0.00 | 90 | 1009.5 |
| 20260505223039 | 34 | 138 | 0.0 | 0.0 | 0.00 | 0.00 | 0.00 | 90 | 1009.4 |
| 20260505221541 | 34 | 138 | 0.0 | 0.0 | 0.00 | 0.00 | 0.00 | 89 | 1009.2 |
| 20260505220051 | 34 | 138 | 0.0 | 0.0 | 0.00 | 0.00 | 0.00 | 88 | 1009.2 |
| 20260505214533 | 35 | 138 | 0.0 | 1.7 | 0.00 | 0.00 | 0.00 | 87 | 1009.2 |
| 20260505213031 | 37 | 138 | 0.0 | 0.0 | 0.00 | 0.00 | 0.00 | 86 | 1009.0 |
| 20260505211524 | 38 | 138 | 0.0 | 0.0 | 0.00 | 0.00 | 0.00 | 85 | 1008.9 |
| 20260505210020 | 39 | 161 | 0.9 | 4.3 | 0.00 | 0.00 | 0.00 | 84 | 1008.9 |
| 20260505204519 | 39 | 161 | 0.0 | 0.0 | 0.00 | 0.00 | 0.00 | 83 | 1008.7 |
| 20260505203016 | 40 | 161 | 0.0 | 0.0 | 0.00 | 0.00 | 0.00 | 82 | 1008.5 |
| 20260505201517 | 40 | 161 | 0.0 | 0.0 | 0.00 | 0.00 | 0.00 | 80 | 1008.3 |
| 20260505200010 | 42 | 113 | 0.0 | 0.0 | 0.00 | 0.00 | 0.00 | 77 | 1008.3 |
| 20260505194518 | 43 | 113 | 0.0 | 1.7 | 0.00 | 0.00 | 0.00 | 75 | 1008.1 |
| 20260505193009 | 43 | 83 | 0.9 | 1.7 | 0.00 | 0.00 | 0.00 | 74 | 1007.9 |
| 20260505191506 | 43 | 82 | 0.9 | 2.6 | 0.00 | 0.00 | 0.00 | 71 | 1007.8 |
| 20260505190005 | 44 | 83 | 0.9 | 2.6 | 0.00 | 0.00 | 0.00 | 70 | 1007.6 |
| 20260505184502 | 44 | 83 | 0.0 | 5.2 | 0.00 | 0.00 | 0.00 | 70 | 1007.5 |
| 20260505183108 | 45 | 83 | 2.6 | 4.3 | 0.00 | 0.00 | 0.00 | 68 | 1007.3 |
| 20260505181610 | 46 | 71 | 2.6 | 5.2 | 0.00 | 0.00 | 0.00 | 65 | 1007.1 |
| 20260505180056 | 46 | 50 | 3.5 | 5.2 | 0.00 | 0.00 | 0.00 | 59 | 1007.0 |
| 20260505174556 | 47 | 350 | 3.5 | 7.0 | 0.00 | 0.00 | 0.00 | 46 | 1006.9 |
| 20260505173053 | 47 | 32 | 5.2 | 10.4 | 0.00 | 0.00 | 0.00 | 44 | 1006.7 |
| 20260505171552 | 48 | 314 | 7.8 | 12.2 | 0.00 | 0.00 | 0.00 | 40 | 1006.6 |
| 20260505170050 | 48 | 243 | 7.0 | 11.3 | 0.00 | 0.00 | 0.00 | 40 | 1006.4 |
| 20260505164558 | 49 | 275 | 7.8 | 13.0 | 0.00 | 0.00 | 0.00 | 38 | 1006.3 |
| 20260505163048 | 49 | 307 | 5.2 | 9.6 | 0.00 | 0.00 | 0.00 | 41 | 1006.3 |
| 20260505161556 | 49 | 269 | 6.1 | 12.2 | 0.00 | 0.00 | 0.00 | 38 | 1006.3 |
| 20260505153050 | 49 | 259 | 6.1 | 12.2 | 0.00 | 0.00 | 0.00 | 38 | 1006.1 |
| 20260505151542 | 49 | 269 | 7.8 | 12.2 | 0.00 | 0.00 | 0.00 | 39 | 1006.1 |
| 20260505124535 | 50 | 268 | 10.4 | 18.2 | 0.00 | 0.00 | 0.00 | 37 | 1005.5 |
| 20260505123026 | 49 | 261 | 8.7 | 13.9 | 0.00 | 0.00 | 0.00 | 36 | 1005.5 |
| 20260505121523 | 50 | 263 | 9.6 | 15.6 | 0.00 | 0.00 | 0.00 | 34 | 1005.6 |
| 20260505120023 | 48 | 267 | 9.6 | 12.2 | 0.00 | 0.00 | 0.00 | 40 | 1005.4 |
| 20260505114517 | 49 | 265 | 12.2 | 17.4 | 0.00 | 0.00 | 0.00 | 39 | 1005.4 |
| 20260505113015 | 49 | 292 | 8.7 | 15.6 | 0.00 | 0.00 | 0.00 | 42 | 1005.3 |
| 20260505111511 | 49 | 306 | 9.6 | 17.4 | 0.00 | 0.00 | 0.00 | 42 | 1005.4 |